Terug naar catalogus

FLOCK 4Q 13

ActiefWetenschapSSO
NORAD 58328·PAYLOAD·🇺🇸 United States

Gelanceerd Nov 11, 2023 vanaf Vandenberg Space Force Base

Loading…

Volgende Passages (komende 24 uur)

TLE

VersSource: CelesTrak SupGP

Epoch: Sep 15, 2026, 02:44 UTC

1 58328C 23174CA  26258.11442130  .00036422  00000+0  53185-3 0  2581
2 58328  97.3981 351.8066 0006279 166.2962 263.9665 15.55618246    11

Volg FLOCK 4Q 13 in realtime met AllMySat

Download on the App Store